When you browse on this site, cookies collect data to enhance your experience and personalize the content and advertising you see.
Visit our Privacy Policy to learn more. By continuing to use the site, you agree to this use of cookies and data.
  • In Belgien
  • Länderverzeichnis
  • Für 7 Tage
  • Wassertemperatur
  • Satellitenkarten
  • Wetterkarte
  • Widgets
  • user-avatar
    Anmelden

    Stündliche Wetter Ronse

    Heute, 21 Februar, Donnerstag

    Zeit Temperatur Niederschläge Wind Luftdruck Luftfeuchtigkeit
    00:00 +5°C° 0 mm 3 m/S 764 mmHg 91%
    01:00 +5°C° 0 mm 3 m/S 764 mmHg 91%
    02:00 +4°C° 0 mm 3 m/S 764 mmHg 91%
    03:00 +4°C° 0 mm 3 m/S 764 mmHg 92%
    04:00 +4°C° 0 mm 3 m/S 764 mmHg 92%
    05:00 +4°C° 0 mm 3 m/S 765 mmHg 92%
    06:00 +4°C° 0 mm 3 m/S 765 mmHg 92%
    07:00 +5°C° 0 mm 3 m/S 765 mmHg 89%
    08:00 +7°C° 0 mm 3 m/S 765 mmHg 86%
    09:00 +7°C° 0 mm 4 m/S 765 mmHg 82%
    10:00 +8°C° 0 mm 4 m/S 765 mmHg 77%
    11:00 +10°C° 0 mm 4 m/S 766 mmHg 72%
    12:00 +12°C° 0 mm 4 m/S 766 mmHg 66%
    13:00 +12°C° 0 mm 3 m/S 766 mmHg 66%
    14:00 +12°C° 0 mm 3 m/S 766 mmHg 66%
    15:00 +13°C° 0 mm 3 m/S 766 mmHg 66%
    16:00 +12°C° 0 mm 3 m/S 766 mmHg 71%
    17:00 +10°C° 0 mm 2 m/S 767 mmHg 77%
    18:00 +9°C° 0 mm 2 m/S 767 mmHg 82%
    19:00 +9°C° 0 mm 2 m/S 767 mmHg 84%
    20:00 +8°C° 0 mm 2 m/S 768 mmHg 86%
    21:00 +8°C° 0 mm 2 m/S 768 mmHg 88%
    22:00 +7°C° 0 mm 2 m/S 769 mmHg 88%
    23:00 +7°C° 0 mm 2 m/S 769 mmHg 89%

    Morgen, 22 Februar, Freitag

    Zeit Temperatur Niederschläge Wind Luftdruck Luftfeuchtigkeit
    00:00 +6°C° 0 mm 2 m/S 769 mmHg 89%
    01:00 +7°C° 0 mm 1 m/S 769 mmHg 90%
    02:00 +7°C° 0 mm 1 m/S 770 mmHg 90%
    03:00 +7°C° 0 mm 1 m/S 770 mmHg 91%
    04:00 +7°C° 0 mm 1 m/S 770 mmHg 92%
    05:00 +7°C° 0 mm 1 m/S 770 mmHg 92%
    06:00 +6°C° 0 mm 0 m/S 771 mmHg 93%
    07:00 +7°C° 0 mm 0 m/S 771 mmHg 91%
    08:00 +8°C° 0 mm 0 m/S 771 mmHg 89%
    09:00 +9°C° 0 mm 0 m/S 771 mmHg 87%
    10:00 +10°C° 0 mm 0 m/S 772 mmHg 83%
    11:00 +13°C° 0 mm 1 m/S 772 mmHg 79%
    12:00 +14°C° 0 mm 1 m/S 772 mmHg 75%
    13:00 +15°C° 0 mm 2 m/S 772 mmHg 74%
    14:00 +15°C° 0 mm 2 m/S 771 mmHg 72%
    15:00 +15°C° 0 mm 2 m/S 771 mmHg 71%
    16:00 +14°C° 0 mm 2 m/S 771 mmHg 76%
    17:00 +12°C° 0 mm 2 m/S 772 mmHg 82%
    18:00 +10°C° 0 mm 2 m/S 772 mmHg 87%
    19:00 +9°C° 0 mm 3 m/S 772 mmHg 88%
    20:00 +9°C° 0 mm 3 m/S 772 mmHg 89%
    21:00 +8°C° 0 mm 3 m/S 772 mmHg 90%
    22:00 +8°C° 0 mm 3 m/S 772 mmHg 90%
    23:00 +7°C° 0 mm 3 m/S 772 mmHg 90%

    übermorgen, 23 Februar, Samstag

    Zeit Temperatur Niederschläge Wind Luftdruck Luftfeuchtigkeit
    00:00 +7°C° 0 mm 3 m/S 772 mmHg 90%
    01:00 +5°C° 0 mm 3 m/S 772 mmHg 90%
    02:00 +5°C° 0 mm 3 m/S 772 mmHg 89%
    03:00 +5°C° 0 mm 3 m/S 772 mmHg 89%
    04:00 +4°C° 0 mm 3 m/S 772 mmHg 89%
    05:00 +5°C° 0 mm 2 m/S 772 mmHg 90%
    06:00 +5°C° 0 mm 2 m/S 771 mmHg 90%
    07:00 +6°C° 0 mm 2 m/S 772 mmHg 85%
    08:00 +7°C° 0 mm 3 m/S 772 mmHg 80%
    09:00 +7°C° 0 mm 3 m/S 772 mmHg 75%
    10:00 +9°C° 0 mm 3 m/S 772 mmHg 69%
    11:00 +10°C° 0 mm 3 m/S 771 mmHg 63%
    12:00 +12°C° 0 mm 3 m/S 771 mmHg 57%
    13:00 +12°C° 0 mm 3 m/S 771 mmHg 54%
    14:00 +13°C° 0 mm 3 m/S 771 mmHg 52%
    15:00 +13°C° 0 mm 3 m/S 771 mmHg 49%
    16:00 +12°C° 0 mm 3 m/S 771 mmHg 53%
    17:00 +10°C° 0 mm 3 m/S 771 mmHg 56%
    18:00 +9°C° 0 mm 3 m/S 771 mmHg 59%
    19:00 +8°C° 0 mm 3 m/S 771 mmHg 60%
    20:00 +7°C° 0 mm 3 m/S 771 mmHg 60%
    21:00 +7°C° 0 mm 3 m/S 771 mmHg 60%
    22:00 +6°C° 0 mm 2 m/S 771 mmHg 60%
    23:00 +5°C° 0 mm 2 m/S 771 mmHg 60%

    24 Februar, Sonntag

    Zeit Temperatur Niederschläge Wind Luftdruck Luftfeuchtigkeit
    00:00 +5°C° 0 mm 2 m/S 771 mmHg 59%
    01:00 +4°C° 0 mm 2 m/S 771 mmHg 58%
    02:00 +4°C° 0 mm 2 m/S 771 mmHg 56%
    03:00 +4°C° 0 mm 2 m/S 771 mmHg 54%
    04:00 +3°C° 0 mm 2 m/S 771 mmHg 52%
    05:00 +3°C° 0 mm 2 m/S 771 mmHg 50%
    06:00 +4°C° 0 mm 1 m/S 771 mmHg 48%
    07:00 +4°C° 0 mm 2 m/S 772 mmHg 47%
    08:00 +5°C° 0 mm 2 m/S 772 mmHg 45%
    09:00 +6°C° 0 mm 2 m/S 772 mmHg 43%
    10:00 +8°C° 0 mm 2 m/S 772 mmHg 40%
    11:00 +9°C° 0 mm 2 m/S 772 mmHg 37%
    12:00 +12°C° 0 mm 2 m/S 772 mmHg 34%
    13:00 +13°C° 0 mm 2 m/S 772 mmHg 36%
    14:00 +14°C° 0 mm 2 m/S 772 mmHg 38%
    15:00 +14°C° 0 mm 2 m/S 772 mmHg 39%
    16:00 +13°C° 0 mm 2 m/S 772 mmHg 43%
    17:00 +10°C° 0 mm 2 m/S 772 mmHg 47%
    18:00 +10°C° 0 mm 1 m/S 772 mmHg 51%
    19:00 +8°C° 0 mm 2 m/S 772 mmHg 54%
    20:00 +8°C° 0 mm 2 m/S 772 mmHg 56%
    21:00 +7°C° 0 mm 2 m/S 773 mmHg 58%
    22:00 +6°C° 0 mm 2 m/S 773 mmHg 59%
    23:00 +6°C° 0 mm 2 m/S 773 mmHg 60%

    25 Februar, Montag

    Zeit Temperatur Niederschläge Wind Luftdruck Luftfeuchtigkeit
    00:00 +7°C° 0 mm 1 m/S 773 mmHg 61%
    01:00 +6°C° 0 mm 1 m/S 773 mmHg 61%
    02:00 +6°C° 0 mm 1 m/S 773 mmHg 60%
    03:00 +6°C° 0 mm 1 m/S 773 mmHg 60%
    04:00 +6°C° 0 mm 1 m/S 773 mmHg 59%
    05:00 +5°C° 0 mm 1 m/S 773 mmHg 58%
    06:00 +5°C° 0 mm 1 m/S 773 mmHg 57%
    07:00 +6°C° 0 mm 1 m/S 773 mmHg 55%
    08:00 +8°C° 0 mm 1 m/S 773 mmHg 53%
    09:00 +9°C° 0 mm 1 m/S 774 mmHg 51%
    10:00 +10°C° 0 mm 1 m/S 773 mmHg 48%
    11:00 +12°C° 0 mm 1 m/S 773 mmHg 45%
    12:00 +14°C° 0 mm 2 m/S 773 mmHg 42%
    13:00 +14°C° 0 mm 2 m/S 773 mmHg 43%
    14:00 +15°C° 0 mm 2 m/S 772 mmHg 43%
    15:00 +15°C° 0 mm 2 m/S 772 mmHg 44%
    16:00 +14°C° 0 mm 2 m/S 772 mmHg 48%
    17:00 +12°C° 0 mm 2 m/S 772 mmHg 53%
    18:00 +9°C° 0 mm 2 m/S 772 mmHg 57%
    19:00 +9°C° 0 mm 3 m/S 772 mmHg 58%
    20:00 +8°C° 0 mm 3 m/S 772 mmHg 60%
    21:00 +8°C° 0 mm 3 m/S 772 mmHg 61%
    22:00 +7°C° 0 mm 2 m/S 772 mmHg 65%
    23:00 +7°C° 0 mm 2 m/S 772 mmHg 69%

    26 Februar, Dienstag

    Zeit Temperatur Niederschläge Wind Luftdruck Luftfeuchtigkeit
    00:00 +7°C° 0 mm 2 m/S 772 mmHg 73%
    01:00 +7°C° 0 mm 2 m/S 772 mmHg 74%
    02:00 +6°C° 0 mm 2 m/S 772 mmHg 74%
    03:00 +7°C° 0 mm 1 m/S 771 mmHg 75%
    04:00 +7°C° 0 mm 1 m/S 771 mmHg 74%
    05:00 +7°C° 0 mm 1 m/S 771 mmHg 73%
    06:00 +6°C° 0 mm 2 m/S 771 mmHg 72%
    07:00 +7°C° 0 mm 2 m/S 771 mmHg 70%
    08:00 +8°C° 0 mm 2 m/S 771 mmHg 67%
    09:00 +10°C° 0 mm 2 m/S 771 mmHg 64%
    10:00 +12°C° 0 mm 2 m/S 771 mmHg 59%
    11:00 +14°C° 0 mm 2 m/S 771 mmHg 54%
    12:00 +16°C° 0 mm 2 m/S 771 mmHg 49%
    13:00 +16°C° 0 mm 2 m/S 770 mmHg 50%
    14:00 +17°C° 0 mm 3 m/S 770 mmHg 51%
    15:00 +17°C° 0 mm 3 m/S 769 mmHg 51%
    16:00 +14°C° 0 mm 3 m/S 769 mmHg 57%
    17:00 +13°C° 0 mm 3 m/S 769 mmHg 62%
    18:00 +12°C° 0 mm 2 m/S 769 mmHg 67%
    19:00 +12°C° 0 mm 2 m/S 769 mmHg 70%
    20:00 +10°C° 0 mm 2 m/S 769 mmHg 72%
    21:00 +9°C° 0 mm 2 m/S 769 mmHg 74%
    22:00 +9°C° 0 mm 2 m/S 769 mmHg 76%
    23:00 +9°C° 0 mm 2 m/S 769 mmHg 77%
    Mehr zeigen